Kezdőlap
METAR-TAF:

METAR-TAF

Repülőterek :

Sparta, Wisconsin, Amerikai Egyesült Államok

földrajzi szélesség: 43-57-30N, földrajzi hosszúság: 090-44-16W, magasság: 255 m

Jelenlegi meteorológiai megfigyelések

A jelentés 21 perccel ezelõtt készült, 07:15 UTC
Észak-északnyugati szél 14 kt széllökések: 19 kt
Hőmérséklet 0°C
Páratartalom 80%
Légköri nyomás 1019 hPa
Látótávolság: 16.1 km
Szakadozott felhőzet 1900 lábon

METAR: KCMY 060715Z AUTO 34014G19KT 10SM BKN019 00/M03 A3010 RMK AO2 T10051029

Idő: 01:36 (07:36 UTC)


TAF: hiányzik

Meteorológiai megfigyelések és előrejelzések több, mint 4000 repülőtéren (METAR és TAF jelentéseket).

A térképen piros és sárga pontok jelzik az elérhető meteorológiai állomásokat.

Mozgassa az egeret a pont fölött, hogy megjelenjen az állomás neve.

Azután kattintson az időjárási megfigyelések és előrejelzések megtekintéséhez.

A térkép megváltoztatása: kattintson a fekete keresztel jelölt zöld gombra ráközelítéshez, a vonallal jelölt zöld gombra távolításhoz, vagy a zöld nyilakra a szomszédos térképek eléréséhez.


METAR-TAF: